Regional Weather Roundup
Issued by NWS Jackson, KY

Home | Current Version | Previous Version | Graphics & Text | Print | Product List | Glossary On
Versions: 1 2 3 4 5 6 7 8 9 10 11 12 13 14 15 16 17 18 19 20 21 22 23 24 25 26 27 28 29 30 31 32 33 34 35 36 37 38 39 40 41 42 43 44 45 46 47 48 49 50
614
ASUS43 KJKL 280410
RWRJKL

EAST KENTUCKY HOURLY WEATHER ROUNDUP
NATIONAL WEATHER SERVICE JACKSON KY
1200 AM EDT SAT MAY 28 2016

NOTE: "FAIR" INDICATES FEW OR NO CLOUDS BELOW 12,000 FEET WITH
NO SIGNIFICANT WEATHER AND/OR OBSTRUCTIONS TO VISIBILITY.

* THESE REPORTS ARE NOT UNDER NWS QUALITY CONTROL AND MAY NOT
  REPORT WEATHER SUCH AS PRECIPITATION AND FOG.

KYZ079-080-083-085-087-088-110-112-115-119-120-280500
...EASTERN KENTUCKY...

CITY           SKY/WX    TMP DP  RH WIND       PRES   REMARKS
JACKSON        CLOUDY    67  64  90 SE3       30.10R
LONDON         MOCLDY    69  65  86 SE3       30.08S
SOMERSET*      PTCLDY    68  63  83 SE3       30.08R
MONTICELLO*    CLEAR     70  65  84 W10       30.08R
WILLIAMSBURG*  PTCLDY    63  61  94 SE5       30.09S
MIDDLESBORO*   CLOUDY    65  64  95 CALM      30.12S
HARLAN APT*    MOCLDY    64  63  94 CALM      30.13S
HAZARD APT*    FOG       68  68 100 CALM      30.10S VSB 1/2
BLACK MTN*       N/A     64  61  88 E3          N/A
PIKE CO APT*   MOCLDY    68  66  95 S3        30.11R
BIG SANDY APT* CLOUDY    72  65  79 CALM      30.09S
MOREHEAD APT*  CLOUDY    73  63  68 CALM      30.08S
ASHLAND*       CLOUDY    72  66  83 CALM      30.04R
$$

KYZ035-036-041-042-044-050-067-078-099-280500
...CENTRAL KENTUCKY...

CITY           SKY/WX    TMP DP  RH WIND       PRES   REMARKS
MT STERLING*   CLOUDY    72  64  78 SW6       30.07S
FLEMING/MASON* PTCLDY    72  66  80 CALM      30.06F
DANVILLE*      CLEAR     68  64  88 CALM      30.07R
RICHMOND*      CLEAR     72  63  73 SE5       30.06S
LEXINGTON      CLEAR     74  65  73 SE9       30.05S
FRANKFORT      PTCLDY    75  64  68 SE7       30.02S
LOUISVILLE     CLOUDY    76  61  59 S10       29.99R
LEBANON*         N/A     73  66  78 S5        30.05R
GLASGOW*       LGT RAIN  68  68  99 S5        30.04S
BOWLING GREEN  CLOUDY    74  67  78 SE7       30.01R
$$

KYZ091>093-OHZ055-061-077-WVZ005-015-034-035-042-280500
...SOUTHERN OHIO/WEST VIRGINIA...

CITY           SKY/WX    TMP DP  RH WIND       PRES   REMARKS
COVINGTON      CLOUDY    74  65  73 S3        30.02S
COLUMBUS       MOCLDY    76  63  64 SE3       30.03R
DAYTON         CLOUDY    75  62  64 S7        30.04R
WILMINGTON     CLOUDY    71  63  75 CALM      30.04S
HUNTINGTON       N/A     73  65  75 S5        30.06R
CHARLESTON     MOCLDY    71  63  75 S3        30.08R
PINEVILLE*       N/A     64  62  91 MISG      30.20R FOG
BECKLEY        MOCLDY    69  60  73 S9        30.18R
BLUEFIELD        N/A     68  59  73 S7        30.21S
LOGAN CO APT*    N/A     72  64  78 CALM      30.12R
$$

VAZ002-007-008-TNZ017-027-036-066-071-280500
...SOUTHWEST VIRGINIA/EAST TENNESSEE...

CITY           SKY/WX    TMP DP  RH WIND       PRES   REMARKS
WISE*            N/A     68  55  64 S7        30.19S
JONESVILLE*      N/A     66  66 100 CALM      30.15R
ABINGDON*        N/A     66  65  94 E3        30.17R
BRISTOL        PTCLDY    65  64  97 CALM      30.14R FOG
SEVIERVILLE*   CLEAR     66  64  94 CALM      30.09R
KNOXVILLE      CLOUDY    68  67  96 CALM      30.09R
OAK RIDGE      CLOUDY    70  67  90 CALM      30.11R
CROSSVILLE     PTCLDY    70  64  81 S5        30.12R
NASHVILLE      CLOUDY    78  62  57 SE9       30.02R
$$

...KEY TO REMARKS...
VSB - VISIBILITY IN MILES
WCI - WIND CHILL INDEX
HX  - HEAT INDEX

$$




USA.gov is the U.S. government's official web portal to all federal, state and local government web resources and services.